Regional Weather Roundup
Issued by NWS

Home | Current Version | Previous Version | Graphics & Text | Print | Product List | Glossary On
Versions: 1 2 3 4 5 6 7 8 9 10 11 12 13 14 15 16 17 18 19 20 21 22 23 24 25 26 27 28 29 30 31 32 33 34 35 36 37 38 39 40 41 42 43 44 45 46 47 48 49 50
186
ASUS43 KMPX 232010
RWRMN
WEATHER ROUNDUP FOR MINNESOTA
NATIONAL WEATHER SERVICE TWIN CITIES/CHANHASSEN MN
300 PM CDT SUN APR 23 2017


NOTE: "FAIR" INDICATES FEW OR NO CLOUDS BELOW 12,000 FEET WITH NO
SIGNIFICANT WEATHER AND/OR OBSTRUCTIONS TO VISIBILITY. N/A MEANS
CURRENT SKY AND/OR WEATHER CONDITIONS ARE NOT AVAILABLE.

MNZ060>063-068>070-232100-
   Twin Cities Metro

CITY           SKY/WX    TMP DP  RH WIND       PRES   REMARKS
TWIN CITIES    CLOUDY    67  40  37 N6        29.99F
ST PAUL        CLOUDY    66  42  41 CALM      30.00F
CRYSTAL        CLOUDY    65  39  38 NW5       29.99F
BLAINE         CLOUDY    64  43  45 NE6       30.01F
LAKEVILLE      MOSUNNY   66  37  34 S3        29.99S
EDEN PRAIRIE   PTSUNNY   68  39  34 CALM      29.98F
SOUTH ST PAUL  MOSUNNY   65  39  37 CALM      29.99S
LAKE ELMO      FAIR      64  43  45 SW3       30.01F
$$
MNZ001>005-007-008-013>017-022>024-027-028-232100-
   Northwest Minnesota

CITY           SKY/WX    TMP DP  RH WIND       PRES   REMARKS
BEMIDJI        FLURRIES  31  27  85 E13       30.12F WCI  21
HALLOCK        CLOUDY    39  10  30 E10G18    30.16F
ROSEAU         PTSUNNY   36  18  48 E9G18     30.17F
WARROAD        MOSUNNY   34  18  51 NE12      30.18F WCI  25
THIEF RVR FALL LGT SNOW  30  25  80 E12       30.15S WCI  21
CROOKSTON      LGT SNOW  30  30 100 E15       30.14F WCI  19
FOSSTON        FLURRIES  32  28  86 E12G18    30.11F WCI  23
DETROIT LAKES  CLOUDY    37  32  81 E12G20    30.04F
MOORHEAD       CLOUDY    45  36  70 E15G21    30.03F
PARK RAPIDS    CLOUDY    35  27  72 E12G18    30.08F WCI  27
MAHNOMEN       CLOUDY    33  29  83 E17       30.07F WCI  22
$$
MNZ006-009>011-018-025>026-232100-
   North Central Minnesota

CITY           SKY/WX    TMP DP  RH WIND       PRES   REMARKS
BAUDETTE       CLOUDY    37  10  32 E5        30.16F
FLAG ISLAND    CLOUDY    34  12  40 N15       30.18F WCI  24
INTL FALLS     PTSUNNY   36  11  35 CALM      30.16F
WASKISH        CLOUDY    36  19  51 E8        30.15F
BIG FORK       LGT SNOW  36  23  60 S5        30.15S
LONGVILLE      CLOUDY    32  32 100 NE8       30.11S WCI  25
GRAND RAPIDS   CLOUDY    33  26  75 NE7       30.15F WCI  27
CRANE LAKE     CLOUDY    37  12  35 E3        30.18F
ORR            CLOUDY    37  18  44 MISG      30.12F
COOK           CLOUDY    37  19  48 NE5       30.15F
WALKER         CLOUDY    32  28  84 NE6       30.10F WCI  26
$$
MNZ012-019>021-037-232100-
   Northeast Minnesota

CITY           SKY/WX    TMP DP  RH WIND       PRES   REMARKS
DULUTH         CLOUDY    35  31  85 E12       30.13F WCI  27
ELY            CLOUDY    37  18  44 CALM      30.14F
HIBBING        LGT SNOW  31  29  92 NE5       30.14F FOG     WCI  26
EVELETH        MIX PCPN  32  26  78 SE5       30.15F WCI  28
DULUTH HARBOR  CLOUDY    37  34  87 NE21      30.17F
TWO HARBORS    CLOUDY    36  28  75 E10       30.15F
SILVER BAY     LGT SNOW  34  28  80 E7        30.16F WCI  28
GRAND MARAIS     N/A     37  28  70 SE8       30.21S
G MARAIS ARPRT CLOUDY    30  21  69 SE7       30.16S WCI  23
$$
MNZ029>031-032-039>041-046>048-054>057-064-232100-
   West Central Minnesota

CITY           SKY/WX    TMP DP  RH WIND       PRES   REMARKS
FERGUS FALLS   CLOUDY    50  37  62 E12G21    29.97F
WHEATON        CLOUDY    63  36  36 CALM      29.92F
MORRIS         PTSUNNY   66  39  37 SE7       29.91F
ALEXANDRIA     CLOUDY    55  41  59 E16       29.98F
ELBOW LAKE     FAIR      54  42  62 E15G24    29.96F
WADENA         CLOUDY    43  34  70 E13G21    30.03F
GLENWOOD       PTSUNNY   57  43  58 E16       29.97F
APPLETON       CLOUDY    66  37  34 SE10      29.91F
BENSON         CLOUDY    70  27  19 S8        29.94F
ORTONVILLE     CLOUDY    63  41  45 SE13      29.90F
MADISON        CLOUDY    70  41  35 SE8       29.90F
WILLMAR        FAIR      66  39  37 S5        29.96F
$$
MNZ033>034-036-042>043-049>051-058-059-232100-
   Central Minnesota

CITY           SKY/WX    TMP DP  RH WIND       PRES   REMARKS
ST CLOUD       CLOUDY    54  41  61 E10       30.01F
SAUK CENTRE    FAIR      53  41  64 E14       29.99F
PAYNESVILLE    CLOUDY    61  40  45 SE6       29.98F
AITKIN         CLOUDY    41  32  70 NE10      30.09S
PINE RIVER     CLOUDY    37  32  81 E12       30.12F
BRAINERD       CLOUDY    42  34  73 NE15      30.08S
STAPLES        CLOUDY    45  32  61 E13       30.04F
LONG PRAIRIE   FAIR      50  37  62 NE14G20   30.01F
LITTLE FALLS   CLOUDY    50  36  57 E7        30.03F
LITCHFIELD     CLOUDY    64  45  48 E7        29.98F
BUFFALO        PTSUNNY   62  44  51 N10       30.01S
MAPLE LAKE     PTSUNNY   61  46  57 NE9       30.02S
HUTCHINSON     CLOUDY    67  40  36 S6        29.98F
$$
MNZ037-044-045-052-053-232100-
   East Central Minnesota

CITY           SKY/WX    TMP DP  RH WIND       PRES   REMARKS
PRINCETON      CLOUDY    55  41  58 NE9       30.04F
MORA           CLOUDY    50  36  57 E7        30.08F
CAMBRIDGE      CLOUDY    57  41  54 N7        30.02F
RUSH CITY      CLOUDY    53  38  58 NE8       30.06S
MOOSE LAKE     CLOUDY    39  32  75 NE6       30.09F
HINCKLEY       FAIR      48  36  61 E9G16     30.08S
CLOQUET        CLOUDY    36  30  80 E12       30.13S
MCGREGOR       CLOUDY    37  32  81 E10G17    30.11S
$$
MNZ071>073-080-081-089-090-097-098-232100-
   Southwest Minnesota

CITY           SKY/WX    TMP DP  RH WIND       PRES   REMARKS
MONTEVIDEO     CLOUDY    66  37  34 S8        29.92F
GRANITE FALLS  CLOUDY    70  36  28 S10G18    29.94F
CANBY          MOSUNNY   72  30  21 SW12G20   29.91F
MARSHALL       MOSUNNY   70  31  23 SW15G23   29.92F
REDWOOD FALLS  MOSUNNY   71  30  21 S12G21    29.93F
OLIVIA         PTSUNNY   70  39  32 SE7       29.94F
PIPESTONE      MOSUNNY   68  25  19 SW17G29   29.93F
WINDOM         CLOUDY    72  27  18 SW18G25   29.96F
WORTHINGTON    MOSUNNY   70  30  22 S15G25    29.96F
JACKSON        CLOUDY    70  30  23 SW17G24   29.98F
TRACY          PTSUNNY   70  34  26 S13G22    29.94F
SLAYTON        MOSUNNY   69  30  23 S22       29.95F
$$
MNZ065>067-074>077-082>085-091>093-232100-
   South Central Minnesota

CITY           SKY/WX    TMP DP  RH WIND       PRES   REMARKS
MANKATO        CLOUDY    72  28  19 S15       29.97F
NEW ULM        PTSUNNY   70  28  21 SW9G20    29.95F
ST JAMES       CLOUDY    70  28  21 SW13G24   29.97F
FAIRMONT       CLOUDY    70  28  21 SW15G30   29.98F
GLENCOE        PTSUNNY   67  41  38 SW5       29.97F
FARIBAULT      CLOUDY    70  36  28 SW3       29.98F
OWATONNA       MOSUNNY   72  23  16 SW15      29.98F
WASECA         CLOUDY    72  32  23 S15       29.99F
ALBERT LEA     MOSUNNY   68  23  18 SW10G20   29.99F
$$
MNZ078>079-086>088-094>096-232100-
   Southeast Minnesota

CITY           SKY/WX    TMP DP  RH WIND       PRES   REMARKS
ROCHESTER      SUNNY     68  33  27 SW7       30.01F
RED WING       SUNNY     70  34  26 CALM      29.97F
STANTON        MOSUNNY   69  34  28 SW6       29.98S
DODGE CENTER   SUNNY     68  30  24 SW12G17   30.00F
WINONA         SUNNY     70  34  26 W6        30.00F
AUSTIN         SUNNY     70  30  23 SW15      30.00F
PRESTON        SUNNY     68  31  25 SW9G21    30.02F
$$
ABBREVIATIONS USED IN REMARKS
   TC - TEMPERATURES IN CELSIUS
  WCI - WIND CHILL INDEX
   HX - HEAT INDEX
  VSB - VISIBILITY
$$




USA.gov is the U.S. government's official web portal to all federal, state and local government web resources and services.